Regional Weather Roundup
Issued by NWS

Home | Current Version | Previous Version | Text Only | Print | Product List | Glossary On
Versions: 1 2 3 4 5 6 7 8 9 10 11 12 13 14 15 16 17 18 19 20 21 22 23 24 25 26 27 28 29 30 31 32 33 34 35 36 37 38 39 40 41 42 43 44 45 46 47 48 49 50
000
ASCA44 KEWX 041720
RWRMX

LATIN AMERICA AND CARIBBEAN REGIONAL WEATHER ROUNDUP
NATIONAL WEATHER SERVICE AUSTIN/SAN ANTONIO TX
1200 PM CDT SAT JUL 04 2015

NOTE: "FAIR" INDICATED FEW OR NO CLOUDS BELOW 12,000 FEET WITH NO
SIGNIFICANT WEATHER AND/OR OBSTRUCTIONS TO VISIBILITY.

BAJA CALIFORNIA

CITY           SKY/WX    TMP DP  RH WIND       PRES   REMARKS
LORETO         PTSUNNY   90  68  48 CALM      29.81R HX  93
LA PAZ         PTSUNNY   86  63  45 S8        29.86F
MEXICALI       MOSUNNY   97  59  28 S8        29.74S HX  96
S.J. DEL CABO  CLOUDY    88  72  58 E12       29.86F HX  94
TIJUANA        CLOUDY    68  57  68 W10       29.94R

NORTHWESTERN MEXICO

CITY           SKY/WX    TMP DP  RH WIND       PRES   REMARKS
CULIACAN         N/A    N/A N/A N/A MISG        N/A
DURANGO        MOSUNNY   72  55  56 SE6       30.23R
GUAYMAS        CLOUDY    82  75  78 CALM      29.82S
HERMOSILLO     CLOUDY    91  70  49 N8        29.91S HX  97
CD. JUAREZ     MOSUNNY   84  61  45 E7        30.02S
LOS MOCHIS     CLOUDY    84  70  61 E14       29.87S
OBREGON        PTSUNNY   82  70  65 E3        29.86S

NORTHEASTERN MEXICO

CITY           SKY/WX    TMP DP  RH WIND       PRES   REMARKS
CHIHUAHUA      PTSUNNY   84  55  37 N15       30.09S
MATAMOROS      PTSUNNY   88  77  70 SE21      29.99S HX 100
MONCLOVA       MOSUNNY   86  70  58 E5        29.98S HX  90
MONTERREY      PTSUNNY   81  70  69 SE7       29.97R
NUEVO LAREDO   MOSUNNY   88  70  55 S12       29.95S HX  92
PIEDRAS NEGRAS PTSUNNY   86  73  66 SE6       29.97F HX  93
REYNOSA        PTSUNNY   86  66  51 S14       29.96S
SALTILLO       PTSUNNY   84  61  45 S6        30.17S
TORREON        MOSUNNY   84  57  39 E13       30.07S
CD. VICTORIA   PTSUNNY   86  66  51 S15       29.97F

WESTERN MEXICO

CITY           SKY/WX    TMP DP  RH WIND       PRES   REMARKS
AGUASCALIENTES PTSUNNY   64  54  68 S2        30.29F
COLIMA         PTSUNNY   82  70  65 CALM      30.03F
DEL BAJIO      PTSUNNY   70  57  64 CALM      30.32S
GUADALAJARA    CLOUDY    70  61  73 CALM      30.21S
MANZANILLO     MOSUNNY   90  77  66 SW12      29.85F HX 102
MAZATLAN       MOSUNNY   88  72  58 SE9       29.87S HX  94
P. VALLARTA    PTSUNNY   88  75  66 CALM      29.90F HX  97
URUAPAN        PTSUNNY   68  63  83 NW7       30.20F THUNDER
ZACATECAS      CLOUDY    63  52  67 SW6       30.32R

CENTRAL MEXICO

CITY           SKY/WX    TMP DP  RH WIND       PRES   REMARKS
CUERNAVACA     MOSUNNY   75  63  64 SE5       30.16S
MEXICO CITY    PTSUNNY   66  50  55 NE8       30.33F
MORELIA        CLOUDY    68  57  68 S9        30.27R
POZA RICA      CLOUDY    79  73  83 CALM      29.99S
PUEBLA         PTSUNNY   66  52  59 SW3       30.34F
QUERETARO      PTSUNNY   66  57  72 CALM      30.32F
S. LUIS POTOSI MOSUNNY   68  52  56 CALM      30.26F
TAMPICO        PTSUNNY   77  73  88 E5        29.99R
TOLUCA         PTSUNNY   61  52  72 E8        30.40S

SOUTHERN MEXICO

CITY           SKY/WX    TMP DP  RH WIND       PRES   REMARKS
ACAPULCO       MOSUNNY   91  72  52 SW3       29.83S HX  98
B. DE HUATULCO MOSUNNY   88  68  51 CALM      29.90F HX  91
OAXACA         PTSUNNY   75  55  50 CALM      30.20F
P. ESCONDIDO   MOSUNNY   86  72  62 SE9       29.92S HX  92
VERACRUZ       PTSUNNY   84  79  84 NE2       29.96S HX  96
ZIHUATANEJO    MOSUNNY   91  75  59 SW9       29.86S HX 102

YUCATAN PENINSULA

CITY           SKY/WX    TMP DP  RH WIND       PRES   REMARKS
CAMPECHE       MOSUNNY   90  73  58 E9        29.95F HX  98
CANCUN         PTSUNNY   86  77  74 E13       30.05R HX  97
CHETUMAL       CLOUDY    86  75  70 SE10      30.01R HX  95
CD. DEL CARMEN PTSUNNY   86  73  66 SE14      29.94F HX  93
COZUMEL        PTSUNNY   84  75  74 E7        30.04S HX  92
MERIDA         PTSUNNY   90  73  58 SE12      30.00F HX  98
MINATITLAN     MOSUNNY   84  68  58 N12       29.87F
TAPACHULA      SUNNY     91  79  66 CALM      29.83F HX 107
TUX. GUTIERREZ MOSUNNY   81  68  65 S6        29.96F
VILLAHERMOSA   MOSUNNY   90  72  55 SE9       29.93F HX  96

CENTRAL AMERICA

CITY           SKY/WX    TMP DP  RH WIND       PRES   REMARKS
BELIZE CITY    MOSUNNY   88  77  70 E14       29.99S HX 100

CARIBBEAN

CITY           SKY/WX    TMP DP  RH WIND       PRES   REMARKS
ARUBA          MOSUNNY   88  79  74 E26G39    29.89S HX 102
CURACAO        MOSUNNY   88  75  66 E18       29.94S HX  97
KINGSTON       MOSUNNY   91  73  55 SE26      29.94S HX 100
NASSAU         MOSUNNY   88  73  62 SE12      30.14F HX  96
SAN JUAN       MOSUNNY   88  75  66 E18       30.09F HX  97
SANTO DOMINGO  MOSUNNY   90  73  58 SE12      30.03S HX  98
ST. CROIX      MOSUNNY   91  72  52 E23G31    30.08S HX  98
ST. KITTS      MOSUNNY   88  75  66 NE17      30.06F HX  97
ST. MAARTEN    PTSUNNY   86  73  66 E20       30.06S HX  93
ST. THOMAS     MOSUNNY   91  72  52 E16G23    30.08  HX  98

$$




USA.gov is the U.S. government's official web portal to all federal, state and local government web resources and services.